Regional Weather Roundup
Issued by NWS

Home | Current Version | Previous Version | Text Only | Print | Product List | Glossary On
Versions: 1 2 3 4 5 6 7 8 9 10 11 12 13 14 15 16 17 18 19 20 21 22 23 24 25 26 27 28 29 30 31 32 33 34 35 36 37 38 39 40 41 42 43 44 45 46 47 48 49 50
466
ASUS44 KLIX 301001
RWRLA
LOUISIANA WEATHER ROUNDUP
NATIONAL WEATHER SERVICE NEW ORLEANS LA
500 AM CDT THU OCT 30 2014

NOTE: "FAIR" INDICATES FEW OR NO CLOUDS BELOW 12,000 FEET WITH NO
      SIGNIFICANT WEATHER AND/OR OBSTRUCTIONS TO VISIBILITY.
      SKY/WX - SKY CONDITION AND SIGNIFICANT WEATHER.
      TMP - AIR TEMPERATURE.    DP   - DEWPOINT TEMPERATURE.
      RH  - RELATIVE HUMIDITY.  PRES - PRESSURE.
      HX  - HEAT INDEX.         WCI  - WIND CHILL INDEX.

*  THESE STATIONS ARE NOT NWS OR FAA STATIONS AND ARE NOT UNDER
   NWS QUALITY CONTROL.

LAZ040-048-061>063-065-066-069-301100-
SOUTHEAST LOUISIANA

CITY           SKY/WX    TMP DP  RH WIND       PRES   REMARKS
N.O. AUDUBON   NOT AVBL
N.O. INTL ARPT PTCLDY    65  47  52 NE13      30.06S
N.O. LAKEFRONT PTCLDY    66  49  54 NE20      30.07S
N.O. DOWNTOWN* FAIR      64  45  48 N8        30.07S
SLIDELL        CLEAR     56  48  74 N3        30.06S
BATON ROUGE    CLEAR     51  47  86 CALM      30.09S
BOOTHVILLE     MOCLDY    69  61  75 NE12      30.04
BELLE CHASSE   CLOUDY    64  48  56 NE8       30.06R
BOGALUSA*        N/A     51  46  83 N3        30.10S
NEW ROADS*     FAIR      52  47  83 CALM      30.10S
GONZALES*      FAIR      58  53  82 N3        30.08S
HAMMOND*       NOT AVBL
HOUMA*         CLEAR     62  54  75 NE6       30.06R
PORT FOURCHON* CLOUDY    70  61  73 NE15G22   30.07R

$$

LAZ041-044-053-054-301100-
SOUTHWEST LOUISIANA

CITY           SKY/WX    TMP DP  RH WIND       PRES   REMARKS
LAKE CHARLES   CLEAR     55  48  77 NE8       30.09S
LAFAYETTE      CLEAR     54  50  86 N6        30.09S
PATTERSON      CLEAR     59  54  82 N6        30.09S
SALT POINT       N/A     61  56  83 VRB3      30.05S
NEW IBERIA     CLEAR     59  51  75 NE10      30.09R
CHENAULT AIRPK NOT AVBL

$$

LAZ027-028-301100-
CENTRAL LOUISIANA

CITY           SKY/WX    TMP DP  RH WIND       PRES   REMARKS
FORT POLK      CLEAR     54  46  74 NE5       30.11S
ALEXANDRIA INT CLEAR     43  42  97 CALM      30.11S FOG
ALEXANDRIA     CLEAR     44  42  93 CALM      30.12S

$$

LAZ001-002-301100-
NORTHWEST LOUISIANA

CITY           SKY/WX    TMP DP  RH WIND       PRES   REMARKS
SHREVEPORT     CLEAR     47  45  93 NW5       30.14R
BARKSDALE AFB  CLEAR     46  46  98 N2        30.14S
DTN SHREVEPORT FOG       48  46  93 W3        30.15R VSB 1/4

$$

LAZ014-016-301100-
NORTHEAST LOUISIANA

CITY           SKY/WX    TMP DP  RH WIND       PRES   REMARKS
MONROE         CLEAR     46  44  93 CALM      30.14F FOG
TALLULAH       CLEAR     39  38  96 N3        30.13F

$$




USA.gov is the U.S. government's official web portal to all federal, state and local government web resources and services.